Lid_Strength_Index
1 0 -0 -0 0 -0 -0 -0 -0 -1 -1 -1 -1 -0 -0 -1 -0 -1 -1 -0 -0 -0 0 0 0 -0 1 0 0 0 0 1 3 2 1 0 -0 0 -1 -1 -2 -2 -1
0 1 0 -0 -0 0 0 -0 -1 -0 -1 -1 -1 -1 0 -1 -0 -1 -0 0 0 1 0 0 0 -0 0 0 0 1 1 0 2 3 2 2 1 0 0 -0 -1 -2 -1
1 1 1 0 -0 0 1 -0 0 -0 -0 -0 -1 -0 0 -1 -1 -1 0 0 0 0 0 0 0 0 1 1 1 1 1 1 1 2 3 1 1 0 1 0 -0 -1 -1
0 0 1 1 0 0 1 0 -0 -0 -1 0 -1 0 -0 -1 -1 -0 0 0 0 0 -1 -0 -0 0 0 1 0 0 0 1 1 2 2 2 2 1 1 1 2 -0 -0
0 0 1 1 -0 0 0 0 0 -0 -0 0 0 0 -0 -1 -0 -0 -0 -0 0 1 0 -0 -1 -0 -0 0 -0 0 -0 1 2 2 3 2 2 2 2 1 1 1 0
1 1 1 1 0 1 1 0 0 0 -0 0 0 1 0 0 3 1 1 0 -0 0 -0 0 -1 -0 -0 0 0 2 0 1 2 2 2 2 1 1 1 1 2 2 3
1 1 0 1 1 1 1 0 1 1 -1 1 0 0 -0 -0 2 2 2 -1 -0 -0 -0 0 1 -0 -1 -0 0 1 2 2 1 -0 2 1 1 1 0 0 1 2 2
1 1 1 1 1 1 1 0 0 -0 1 0 -0 1 -0 -0 4 3 3 -1 0 -1 -1 -1 0 -0 -1 -0 0 0 -0 -0 -0 -0 -0 -0 -1 -1 -1 -0 -1 -0 -0
2 1 1 1 1 1 1 1 1 0 1 -0 -0 0 0 0 4 4 2 -1 0 -0 -1 -1 -1 -0 3 3 -0 1 0 -0 1 2 3 3 3 4 2 -0 1 1 2
1 1 1 0 0 2 1 1 0 0 1 0 0 -0 1 0 4 4 3 -0 1 1 -0 -1 1 0 4 4 -0 0 1 0 -1 -0 -1 1 1 0 2 -1 -0 1 1
1 1 0 0 0 -0 0 0 1 1 0 0 1 1 -0 0 0 5 5 -0 1 1 1 0 -0 4 5 5 6 -0 1 1 1 1 -0 -0 -1 -1 -1 -1 -2 0 1
0 0 1 0 0 1 0 0 1 1 1 1 1 1 0 0 2 5 6 5 2 1 1 1 0 5 6 6 5 5 5 5 1 1 1 1 0 0 -0 -1 -3 -2 -2
0 0 0 0 0 0 0 1 1 1 2 2 2 2 2 1 1 4 6 6 5 0 0 2 6 7 6 6 6 6 7 1 0 1 1 1 -0 -0 -1 -1 -2 -2 -2
1 1 0 0 1 0 1 0 1 1 2 2 2 2 2 1 1 1 0 0 4 2 3 0 1 2 3 3 2 4 1 0 0 0 1 -0 -1 -0 0 -1 0 0 0
1 1 1 1 1 1 0 1 0 -0 3 3 2 1 2 2 3 6 4 2 0 1 0 -0 1 0 1 1 1 0 0 0 1 0 0 0 0 0 0 -0 0 0 1
2 1 1 1 1 1 1 1 4 6 6 7 8 5 1 5 7 7 8 7 6 6 1 1 2 1 1 1 1 1 0 1 1 0 0 0 1 1 1 0 0 1 1
1 1 1 1 1 1 1 2 2 1 4 6 7 8 8 9 9 8 7 7 7 6 1 1 1 1 1 1 1 1 1 0 -0 1 1 0 0 0 1 1 1 1 1
1 3 1 1 1 1 1 1 1 2 3 2 6 7 8 8 8 8 8 8 1 3 1 1 1 1 1 1 1 0 0 1 1 1 1 1 1 1 1 1 1 1 1
1 1 1 1 1 1 1 1 2 2 2 2 1 4 6 8 7 8 9 1 1 1 1 1 1 0 1 1 0 0 -1 0 1 1 1 1 1 1 1 1 1 5 5
1 3 3 1 1 1 1 2 3 3 3 2 2 3 3 5 5 1 1 1 1 1 1 1 1 0 0 0 1 0 0 1 1 1 1 0 0 0 1 1 1 1 2
3 2 5 1 2 1 2 3 3 4 4 3 2 3 10 4 5 2 1 1 1 1 1 1 0 0 0 0 -0 0 0 0 0 0 0 0 0 1 0 0 1 1 1
3 3 2 2 1 2 2 3 4 5 5 5 3 3 11 4 4 3 1 1 0 -0 -0 0 0 0 0 0 0 0 0 0 0 0 0 0 0 0 0 1 1 1 1
3 3 3 3 3 4 3 3 3 4 5 5 4 4 4 4 4 3 3 2 1 -0 -0 -0 -0 0 0 -0 -0 -0 -0 0 0 -0 0 0 0 0 1 1 2 2 2
3 3 4 3 3 4 3 3 3 6 5 5 4 4 4 3 3 4 3 3 2 2 0 -0 -0 0 0 -0 -1 -1 -0 0 -1 -1 -0 -0 0 1 0 1 1 1 1
5 4 4 4 4 3 3 4 3 2 4 5 6 5 4 4 4 4 3 3 2 2 1 1 -1 -1 -1 -1 -1 1 9 11 5 9 -1 -1 -0 -0 0 1 1 1 1
3 4 4 3 3 3 3 2 3 3 3 2 4 6 6 6 5 4 4 2 2 2 2 2 1 0 -0 0 3 10 12 12 7 10 3 -0 -0 0 1 0 1 1 1